GW6390 Weather Reports


Display with metric or nautical units.
time (UTC)temp
F
wind
direction
speed
MPH
gust
MPH
rain 1hr
in
rain 24hr
in
rain mn
in
humidity
%
barometer
mb
20260906225019 70 344 14.0 20.0 0.00 0.00 0.00 64 1015.7
20260906224600 70 338 14.0 18.0 0.00 0.00 0.00 65 1015.6
20260906224018 69 329 13.0 18.0 0.00 0.00 0.00 65 1015.7
20260906223520 70 319 14.0 18.0 0.00 0.00 0.00 64 1015.6
20260906223042 70 360 13.0 16.0 0.00 0.00 0.00 64 1015.7
20260906222518 69 323 12.0 16.0 0.00 0.00 0.00 64 1015.7
20260906222019 70 324 11.0 15.0 0.00 0.00 0.00 64 1015.7
20260906221551 70 360 10.0 15.0 0.00 0.00 0.00 64 1015.8
20260906221017 70 350 7.0 16.0 0.00 0.00 0.00 64 1015.7
20260906220517 70 348 11.0 16.0 0.00 0.00 0.00 63 1015.7
20260906220054 70 309 9.0 13.0 0.00 0.00 0.00 63 1015.7
20260906215516 71 333 6.0 14.0 0.00 0.00 0.00 62 1015.6
20260906215016 70 17 5.0 14.0 0.00 0.00 0.00 63 1015.7
20260906214817 70 344 6.0 10.0 0.00 0.00 0.00 62 1015.8
20260906214021 71 360 7.0 10.0 0.00 0.00 0.00 62 1015.7
20260906213518 71 17 6.0 10.0 0.00 0.00 0.00 62 1015.8
20260906213034 70 360 3.0 11.0 0.00 0.00 0.00 62 1015.7
20260906212515 71 360 6.0 11.0 0.00 0.00 0.00 62 1015.8
20260906212016 70 360 3.0 7.0 0.00 0.00 0.00 62 1015.9
20260906211542 70 17 2.0 8.0 0.00 0.00 0.00 62 1016.0
20260906211024 70 328 5.0 8.0 0.00 0.00 0.00 62 1016.1
20260906210516 70 51 2.0 4.0 0.00 0.00 0.00 62 1016.1
20260906210038 70 51 1.0 6.0 0.00 0.00 0.00 62 1016.2
20260906205516 70 65 2.0 8.0 0.00 0.00 0.00 63 1016.4
20260906205018 70 106 6.0 9.0 0.00 0.00 0.00 62 1016.2
20260906204538 70 92 1.0 4.0 0.00 0.00 0.00 63 1016.4
20260906204017 70 350 0.0 8.0 0.00 0.00 0.00 64 1016.3
20260906203516 69 34 2.0 10.0 0.00 0.00 0.00 64 1016.3
20260906203035 69 36 5.0 11.0 0.00 0.00 0.00 66 1016.3
20260906202516 69 348 5.0 12.0 0.00 0.00 0.00 66 1016.2
20260906202018 68 69 3.0 11.0 0.00 0.00 0.00 66 1016.4
20260906201535 68 44 7.0 14.0 0.00 0.00 0.00 66 1016.4
20260906201017 68 39 8.0 14.0 0.00 0.00 0.00 66 1016.3
20260906200518 68 67 4.0 14.0 0.00 0.00 0.00 67 1016.2
20260906200043 68 30 6.0 14.0 0.00 0.00 0.00 67 1016.2
20260906195518 68 60 9.0 15.0 0.00 0.00 0.00 68 1016.0
20260906195016 68 57 10.0 15.0 0.00 0.00 0.00 68 1016.1
20260906194534 67 40 8.0 13.0 0.00 0.00 0.00 69 1016.5
20260906194022 67 49 9.0 14.0 0.00 0.00 0.00 69 1016.6
20260906193517 67 20 10.0 15.0 0.00 0.00 0.00 69 1016.3
20260906193053 66 30 10.0 18.0 0.00 0.00 0.00 69 1016.3
20260906192517 66 34 10.0 16.0 0.00 0.00 0.00 70 1016.5
20260906192017 66 51 11.0 17.0 0.00 0.00 0.00 70 1016.6
20260906191539 65 19 12.0 17.0 0.00 0.00 0.00 71 1016.7
20260906191016 65 28 12.0 17.0 0.00 0.00 0.00 72 1016.8
20260906190518 64 32 13.0 17.0 0.00 0.00 0.00 72 1016.7
20260906190035 64 17 11.0 17.0 0.00 0.00 0.00 73 1017.0
20260906185515 63 10 13.0 19.0 0.00 0.00 0.00 73 1017.3
20260906185018 63 15 13.0 19.0 0.00 0.00 0.00 73 1017.2
20260906184542 62 352 13.0 18.0 0.00 0.00 0.00 74 1017.6
20260906184018 62 5 14.0 19.0 0.00 0.00 0.00 75 1017.5
20260906183518 62 11 14.0 19.0 0.00 0.00 0.00 75 1017.6
20260906183036 62 352 14.0 19.0 0.00 0.00 0.00 76 1017.6
20260906182519 62 5 15.0 19.0 0.00 0.00 0.00 76 1017.9
20260906182017 61 5 14.0 19.0 0.00 0.00 0.00 77 1017.9
20260906181550 61 327 14.0 18.0 0.00 0.00 0.00 78 1017.9
20260906181017 60 21 14.0 18.0 0.00 0.00 0.00 79 1017.9
20260906180518 60 13 15.0 20.0 0.00 0.00 0.00 80 1018.0
20260906180037 59 5 15.0 20.0 0.00 0.00 0.00 82 1017.9
20260906175515 59 16 16.0 20.0 0.00 0.00 0.00 83 1017.8
20260906175019 59 5 16.0 20.0 0.00 0.00 0.00 84 1018.0
20260906174538 58 15 14.0 19.0 0.00 0.00 0.00 85 1018.1
20260906174019 58 352 14.0 19.0 0.00 0.00 0.00 86 1018.2
20260906173520 58 9 15.0 20.0 0.00 0.00 0.00 86 1018.1
20260906173036 58 348 15.0 20.0 0.00 0.00 0.00 85 1018.3
20260906172516 58 360 14.0 20.0 0.00 0.00 0.00 85 1018.1
20260906172019 59 352 16.0 22.0 0.00 0.00 0.00 83 1018.2
20260906171534 60 337 17.0 22.0 0.00 0.00 0.00 81 1018.2
20260906171015 62 342 14.0 22.0 0.00 0.00 0.00 80 1018.3
20260906170521 62 341 13.0 17.0 0.00 0.00 0.00 79 1018.2
20260906170037 62 360 10.0 15.0 0.00 0.00 0.00 79 1018.3
20260906165518 62 5 10.0 13.0 0.00 0.00 0.00 80 1018.3
20260906165024 62 26 9.0 12.0 0.00 0.00 0.00 80 1018.2
20260906164542 62 26 9.0 12.0 0.00 0.00 0.00 81 1018.1
20260906164017 62 27 8.0 11.0 0.00 0.00 0.00 81 1018.4
20260906163516 62 10 6.0 10.0 0.00 0.00 0.00 81 1018.5
20260906163037 62 19 5.0 10.0 0.00 0.00 0.00 81 1018.6
20260906162516 61 39 6.0 9.0 0.00 0.00 0.00 82 1018.6
20260906162017 61 341 2.0 8.0 0.00 0.00 0.00 82 1018.7
20260906161536 61 32 2.0 9.0 0.00 0.00 0.00 82 1018.7
20260906161017 61 61 3.0 9.0 0.00 0.00 0.00 82 1018.7
20260906160517 61 38 4.0 7.0 0.00 0.00 0.00 82 1018.7
20260906160059 61 74 4.0 9.0 0.00 0.00 0.00 82 1018.8
20260906155519 61 43 5.0 11.0 0.00 0.00 0.00 82 1018.7
20260906155019 61 55 6.0 10.0 0.00 0.00 0.00 82 1018.5
20260906154543 61 50 4.0 9.0 0.00 0.00 0.00 83 1018.5
20260906154019 61 74 5.0 12.0 0.00 0.00 0.00 83 1018.6
20260906153516 60 38 8.0 12.0 0.00 0.00 0.00 82 1018.7
20260906153044 61 55 8.0 12.0 0.00 0.00 0.00 82 1018.7
20260906152521 60 63 9.0 12.0 0.00 0.00 0.00 82 1018.5
20260906152017 60 51 10.0 14.0 0.00 0.00 0.00 83 1018.5
20260906151545 60 74 8.0 14.0 0.00 0.00 0.00 84 1018.7
20260906151018 60 51 8.0 12.0 0.00 0.00 0.00 84 1018.7
20260906150517 60 67 8.0 13.0 0.00 0.00 0.00 85 1018.8
20260906150038 60 67 9.0 13.0 0.00 0.00 0.00 85 1018.5
20260906145519 60 59 10.0 14.0 0.00 0.00 0.00 85 1018.5
20260906145022 59 49 11.0 14.0 0.00 0.00 0.00 85 1018.6
20260906144545 59 59 10.0 13.0 0.00 0.00 0.00 85 1018.7
20260906144016 59 49 8.0 11.0 0.00 0.00 0.00 85 1019.1
20260906143516 59 39 8.0 10.0 0.00 0.00 0.00 85 1019.1
20260906143042 59 42 8.0 10.0 0.00 0.00 0.00 86 1019.2
20260906142517 59 49 6.0 10.0 0.00 0.00 0.00 86 1019.2
20260906142016 59 46 7.0 10.0 0.00 0.00 0.00 86 1019.3
20260906141540 59 37 7.0 10.0 0.00 0.00 0.00 85 1019.4
20260906141017 59 37 5.0 10.0 0.00 0.00 0.00 85 1019.5
20260906140518 59 40 7.0 10.0 0.00 0.00 0.00 85 1019.3
20260906140037 59 31 7.0 12.0 0.00 0.00 0.00 85 1019.2
20260906135515 59 20 8.0 12.0 0.00 0.00 0.00 85 1019.0
20260906135018 59 19 7.0 12.0 0.00 0.00 0.00 85 1019.2
20260906134536 58 20 7.0 12.0 0.00 0.00 0.00 85 1019.2
20260906134019 58 13 9.0 12.0 0.00 0.00 0.00 84 1019.1
20260906133518 58 30 7.0 14.0 0.00 0.00 0.00 85 1019.2
20260906133046 58 17 9.0 15.0 0.00 0.00 0.00 85 1019.0
20260906132517 58 22 10.0 15.0 0.00 0.00 0.00 84 1018.9
20260906132018 58 28 9.0 12.0 0.00 0.00 0.00 84 1019.2
20260906131539 58 21 8.0 11.0 0.00 0.00 0.00 85 1019.3
20260906131017 58 5 8.0 12.0 0.00 0.00 0.00 84 1019.3
20260906130517 58 5 8.0 12.0 0.00 0.00 0.00 84 1019.1
20260906130044 58 22 9.0 12.0 0.00 0.00 0.00 84 1018.9
20260906125516 58 5 8.0 12.0 0.00 0.00 0.00 85 1018.9
20260906125017 58 28 9.0 12.0 0.00 0.00 0.00 85 1018.9
20260906124542 57 15 7.0 11.0 0.00 0.00 0.00 85 1019.1
20260906124016 57 22 9.0 11.0 0.00 0.00 0.00 85 1018.9
20260906123516 57 19 7.0 10.0 0.00 0.00 0.00 85 1018.9
20260906123038 57 21 5.0 9.0 0.00 0.00 0.00 86 1019.1
20260906122519 57 17 5.0 9.0 0.00 0.00 0.00 86 1019.1
20260906122019 57 10 6.0 9.0 0.00 0.00 0.00 86 1019.1
20260906121539 57 18 6.0 11.0 0.00 0.00 0.00 86 1019.1
20260906121021 57 24 7.0 11.0 0.00 0.00 0.00 86 1018.8
20260906120516 56 26 8.0 11.0 0.00 0.00 0.00 87 1018.9
20260906120042 56 25 7.0 10.0 0.00 0.00 0.00 87 1018.9
20260906115518 56 11 7.0 11.0 0.00 0.00 0.00 87 1018.9
20260906115017 56 9 8.0 11.0 0.00 0.00 0.00 86 1018.9
20260906114546 56 16 8.0 11.0 0.00 0.00 0.00 86 1018.9
20260906114016 56 9 8.0 10.0 0.00 0.00 0.00 86 1019.1
20260906113513 56 352 7.0 11.0 0.00 0.00 0.00 85 1019.1
20260906113038 56 352 8.0 11.0 0.00 0.00 0.00 85 1019.1
20260906112518 56 360 7.0 12.0 0.00 0.00 0.00 85 1018.9
20260906112020 56 9 9.0 12.0 0.00 0.00 0.00 85 1018.9
20260906111540 56 352 9.0 13.0 0.00 0.00 0.00 85 1018.9
20260906111016 57 360 10.0 13.0 0.00 0.00 0.00 85 1018.8
20260906110516 57 11 11.0 13.0 0.00 0.00 0.00 85 1018.8
20260906110041 57 9 10.0 13.0 0.00 0.00 0.00 85 1018.8
20260906105518 57 360 10.0 13.0 0.00 0.00 0.00 85 1019.0
20260906105016 57 5 9.0 13.0 0.00 0.00 0.00 84 1019.1
20260906104540 57 352 10.0 13.0 0.00 0.00 0.00 84 1019.2
20260906104020 57 360 10.0 15.0 0.00 0.00 0.00 84 1019.2
20260906103517 57 352 11.0 16.0 0.00 0.00 0.00 84 1019.1
20260906103039 57 360 10.0 16.0 0.00 0.00 0.00 84 1019.1
20260906102517 56 9 11.0 15.0 0.00 0.00 0.00 85 1019.1
20260906102017 56 5 10.0 15.0 0.00 0.00 0.00 84 1019.2
20260906101539 56 9 11.0 17.0 0.00 0.00 0.00 84 1019.2
20260906101016 56 5 12.0 17.0 0.00 0.00 0.00 85 1019.2
20260906100516 56 352 13.0 16.0 0.00 0.00 0.00 85 1019.1
20260906100040 56 360 12.0 16.0 0.00 0.00 0.00 85 1019.1
20260906095524 56 352 12.0 16.0 0.00 0.00 0.00 85 1019.3
20260906095017 56 10 12.0 16.0 0.00 0.00 0.00 85 1019.2
20260906094558 56 352 12.0 17.0 0.00 0.00 0.00 85 1019.3
20260906094021 56 14 11.0 19.0 0.00 0.00 0.00 85 1019.3
20260906093516 55 338 15.0 19.0 0.00 0.00 0.00 86 1019.3
20260906093102 55 340 12.0 16.0 0.00 0.00 0.00 85 1019.3
20260906092517 55 345 12.0 16.0 0.00 0.00 0.00 85 1019.3
20260906092017 55 336 11.0 14.0 0.00 0.00 0.00 85 1019.4
20260906091537 55 352 10.0 13.0 0.00 0.00 0.00 85 1019.3
20260906091016 55 346 10.0 13.0 0.00 0.00 0.00 84 1019.2
20260906090515 55 339 9.0 15.0 0.00 0.00 0.00 84 1019.3
20260906090038 55 352 10.0 15.0 0.00 0.00 0.00 83 1019.4
20260906085520 55 344 12.0 16.0 0.00 0.00 0.00 83 1019.3
20260906085017 55 352 12.0 16.0 0.00 0.00 0.00 83 1019.2
20260906084537 55 5 11.0 15.0 0.00 0.00 0.00 83 1019.2
20260906084021 55 360 12.0 15.0 0.00 0.00 0.00 82 1019.3
20260906083518 56 360 11.0 15.0 0.00 0.00 0.00 82 1019.4
20260906083045 56 347 11.0 15.0 0.00 0.00 0.00 82 1019.3
20260906082517 56 360 12.0 16.0 0.00 0.00 0.00 81 1019.4
20260906082019 56 360 12.0 16.0 0.00 0.00 0.00 81 1019.4
20260906081540 56 9 12.0 18.0 0.00 0.00 0.00 80 1019.6
20260906081017 56 5 12.0 20.0 0.00 0.00 0.00 80 1019.4
20260906080518 56 9 14.0 18.0 0.00 0.00 0.00 80 1019.4
20260906080043 56 360 13.0 18.0 0.00 0.00 0.00 79 1019.5
20260906075517 57 360 12.0 19.0 0.00 0.00 0.00 79 1019.7
20260906075017 57 9 14.0 19.0 0.00 0.00 0.00 79 1019.6
20260906074534 57 9 14.0 19.0 0.00 0.00 0.00 79 1019.7
20260906074016 57 360 14.0 19.0 0.00 0.00 0.00 78 1019.8
20260906073518 58 5 13.0 17.0 0.00 0.00 0.00 77 1020.0
20260906073034 58 15 13.0 17.0 0.00 0.00 0.00 77 1020.1
20260906072515 58 13 12.0 17.0 0.00 0.00 0.00 77 1020.0
20260906072015 58 12 13.0 17.0 0.00 0.00 0.00 76 1020.1
20260906071537 58 9 12.0 16.0 0.00 0.00 0.00 77 1020.2
20260906071018 58 15 13.0 16.0 0.00 0.00 0.00 77 1020.3
20260906070521 58 22 12.0 18.0 0.00 0.00 0.00 76 1020.3
20260906070044 58 5 13.0 18.0 0.00 0.00 0.00 76 1020.4
20260906065518 58 13 12.0 18.0 0.00 0.00 0.00 77 1020.4
20260906065018 58 5 14.0 18.0 0.00 0.00 0.00 77 1020.5
20260906064542 58 10 12.0 15.0 0.00 0.00 0.00 77 1020.5
20260906064019 58 352 11.0 15.0 0.00 0.00 0.00 77 1020.5
20260906063516 58 16 11.0 16.0 0.00 0.00 0.00 77 1020.4
20260906063043 58 360 11.0 16.0 0.00 0.00 0.00 77 1020.5
20260906062518 58 9 11.0 16.0 0.00 0.00 0.00 77 1020.5
20260906062017 58 17 12.0 15.0 0.00 0.00 0.00 77 1020.6
20260906061549 58 9 12.0 15.0 0.00 0.00 0.00 78 1020.6
20260906061021 58 15 10.0 15.0 0.00 0.00 0.00 77 1020.6
20260906060523 58 360 12.0 15.0 0.00 0.00 0.00 77 1020.5
20260906060047 58 352 11.0 15.0 0.00 0.00 0.00 77 1020.7
20260906055520 58 346 11.0 14.0 0.00 0.00 0.00 77 1020.7
20260906055016 58 23 11.0 15.0 0.00 0.00 0.00 77 1020.7
20260906054548 58 11 10.0 15.0 0.00 0.00 0.00 77 1020.6
20260906054021 58 352 11.0 15.0 0.00 0.00 0.00 76 1020.7
20260906053519 58 11 11.0 14.0 0.00 0.00 0.00 76 1020.7
20260906053032 58 360 11.0 14.0 0.00 0.00 0.00 76 1020.7
20260906052519 58 12 11.0 14.0 0.00 0.00 0.00 76 1020.7
20260906052019 59 352 10.0 14.0 0.00 0.00 0.00 76 1020.7
20260906051555 59 5 11.0 17.0 0.00 0.00 0.00 75 1020.8
20260906051018 59 10 11.0 18.0 0.00 0.00 0.00 75 1020.7
20260906050520 59 9 11.0 19.0 0.00 0.00 0.00 75 1020.4
20260906045518 59 9 12.0 17.0 0.00 0.00 0.00 75 1020.2
20260906045018 59 360 12.0 18.0 0.00 0.00 0.00 75 1020.2
20260906044555 59 5 13.0 19.0 0.00 0.00 0.00 75 1020.0
20260906044019 59 14 14.0 18.0 0.00 0.00 0.00 75 1019.8
20260906043517 59 29 12.0 17.0 0.00 0.00 0.00 74 1019.9
20260906043056 59 9 13.0 18.0 0.00 0.00 0.00 74 1019.9
20260906042518 59 352 14.0 18.0 0.00 0.00 0.00 74 1019.9
20260906042018 59 351 13.0 16.0 0.00 0.00 0.00 74 1019.9
20260906041550 59 345 12.0 19.0 0.00 0.00 0.00 73 1019.9
20260906041018 60 347 13.0 19.0 0.00 0.00 0.00 73 1020.0
20260906040519 60 340 13.0 17.0 0.00 0.00 0.00 72 1019.8
20260906040033 60 348 12.0 19.0 0.00 0.00 0.00 72 1019.9
20260906035516 60 337 15.0 19.0 0.00 0.00 0.00 72 1019.9
20260906035021 60 352 13.0 16.0 0.00 0.00 0.00 72 1019.6
20260906034547 60 342 12.0 16.0 0.00 0.00 0.00 71 1019.7
20260906034018 60 346 12.0 16.0 0.00 0.00 0.00 71 1019.5
20260906033516 60 346 11.0 15.0 0.00 0.00 0.00 70 1019.5
20260906033056 60 360 11.0 15.0 0.00 0.00 0.00 70 1019.4
20260906032516 60 352 12.0 16.0 0.00 0.00 0.00 70 1019.2
20260906032016 60 351 11.0 16.0 0.00 0.00 0.00 70 1019.1
20260906031547 61 352 13.0 17.0 0.00 0.00 0.00 69 1019.0
20260906031019 61 360 13.0 19.0 0.00 0.00 0.00 69 1018.9
20260906030518 61 347 12.0 17.0 0.00 0.00 0.00 69 1019.0
20260906030050 61 346 13.0 17.0 0.00 0.00 0.00 69 1018.8
20260906025520 61 352 13.0 17.0 0.00 0.00 0.00 68 1018.7
20260906025022 61 342 13.0 19.0 0.00 0.00 0.00 68 1018.8
20260906024600 61 350 15.0 19.0 0.00 0.00 0.00 68 1018.7
20260906024019 61 5 13.0 17.0 0.00 0.00 0.00 67 1018.8
20260906023520 62 352 13.0 18.0 0.00 0.00 0.00 67 1018.9
20260906023046 62 360 14.0 17.0 0.00 0.00 0.00 66 1018.8
20260906022522 62 342 12.0 17.0 0.00 0.00 0.00 66 1018.8
20260906022019 62 352 14.0 20.0 0.00 0.00 0.00 65 1018.4
20260906021547 63 342 15.0 20.0 0.00 0.00 0.00 65 1018.9
20260906021017 63 347 13.0 20.0 0.00 0.00 0.00 64 1018.6
20260906020517 63 352 15.0 20.0 0.00 0.00 0.00 63 1018.5
20260906020046 63 352 15.0 19.0 0.00 0.00 0.00 63 1018.6
20260906015516 64 352 15.0 20.0 0.00 0.00 0.00 62 1018.6
20260906015016 64 360 15.0 21.0 0.00 0.00 0.00 61 1018.7
20260906014625 64 352 15.0 21.0 0.00 0.00 0.00 60 1018.7
20260906014022 65 9 15.0 21.0 0.00 0.00 0.00 59 1018.7
20260906013518 65 352 17.0 23.0 0.00 0.00 0.00 57 1018.5
20260906013058 66 9 18.0 23.0 0.00 0.00 0.00 57 1018.7
20260906012522 66 352 16.0 22.0 0.00 0.00 0.00 55 1018.5
20260906012019 67 5 16.0 22.0 0.00 0.00 0.00 54 1018.6
20260906011605 68 20 16.0 24.0 0.00 0.00 0.00 52 1018.8
20260906011018 70 360 16.0 24.0 0.00 0.00 0.00 49 1018.5
20260906010519 70 5 18.0 23.0 0.00 0.00 0.00 46 1018.7
20260906010058 71 350 19.0 23.0 0.00 0.00 0.00 44 1018.4
20260906005516 71 344 17.0 23.0 0.00 0.00 0.00 43 1018.2
20260906005018 72 342 17.0 23.0 0.00 0.00 0.00 43 1018.4
20260906004606 73 340 18.0 24.0 0.00 0.00 0.00 42 1018.5
20260906004025 74 5 18.0 24.0 0.00 0.00 0.00 40 1018.5
20260906003516 76 350 13.0 18.0 0.00 0.00 0.00 34 1018.2
20260906003059 76 352 14.0 19.0 0.00 0.00 0.00 33 1018.2
20260906002515 76 9 13.0 18.0 0.00 0.00 0.00 33 1018.2
20260906002019 76 360 13.0 19.0 0.00 0.00 0.00 33 1018.3
20260906001551 77 5 15.0 19.0 0.00 0.00 0.00 33 1018.1
20260906001019 77 350 11.0 18.0 0.00 0.00 0.00 32 1018.3
20260906000517 77 5 12.0 18.0 0.00 0.00 0.00 32 1018.3
20260906000055 77 346 12.0 18.0 0.00 0.00 0.00 32 1018.2
20260905235519 77 9 10.0 21.0 0.00 0.00 0.00 32 1018.4
20260905235020 77 11 11.0 21.0 0.00 0.00 0.00 32 1018.4
20260905234558 77 360 13.0 17.0 0.00 0.00 0.00 32 1018.4
20260905234018 77 331 10.0 16.0 0.00 0.00 0.00 32 1018.3
20260905233523 77 24 12.0 16.0 0.00 0.00 0.00 32 1018.5
20260905233051 78 42 10.0 15.0 0.00 0.00 0.00 31 1018.6
20260905232520 77 59 9.0 17.0 0.00 0.00 0.00 30 1018.5
20260905232021 78 24 8.0 17.0 0.00 0.00 0.00 31 1018.5
20260905231550 78 18 10.0 17.0 0.00 0.00 0.00 31 1018.2
20260905231018 78 24 9.0 16.0 0.00 0.00 0.00 31 1018.4
20260905230519 78 352 11.0 17.0 0.00 0.00 0.00 31 1018.5
20260905230108 78 352 11.0 17.0 0.00 0.00 0.00 31 1018.5
20260905225516 78 360 11.0 15.0 0.00 0.00 0.00 31 1018.3